This is the latest recevied weather packets stored in our database for station/object F1ZRP-13. If no packets are shown the sender has not sent any weather packets the latest 10 day(s).
| Time | Temp. | Humidity | Pressure | Rain* | Wind** | Luminosity | Snow |
|---|---|---|---|---|---|---|---|
| 1777725856 | 25.56° C | 45% | 1019 hPa | - | - | - | - |
| 1777724799 | 26.11° C | 44% | 1019.3 hPa | - | - | - | - |
| 1777723929 | 24.44° C | 49% | 1019.5 hPa | - | - | - | - |
| 1777722879 | 25° C | 48% | 1019.8 hPa | - | - | - | - |
| 1777721948 | 24.44° C | 50% | 1020 hPa | - | - | - | - |
| 1777720869 | 22.78° C | 52% | 1020.3 hPa | - | - | - | - |
| 1777719858 | 21.67° C | 52% | 1020.4 hPa | - | - | - | - |
| 1777718891 | 21.67° C | 52% | 1020.5 hPa | - | - | - | - |
| 1777717713 | 20.56° C | 54% | 1020.7 hPa | - | - | - | - |
| 1777716835 | 20° C | 55% | 1020.9 hPa | - | - | - | - |
| 1777715772 | 19.44° C | 56% | 1021.1 hPa | - | - | - | - |
| 1777714653 | 18.89° C | 57% | 1021.3 hPa | - | - | - | - |
| 1777713556 | 17.78° C | 57% | 1021.4 hPa | - | - | - | - |
| 1777712924 | 17.78° C | 56% | 1021.5 hPa | - | - | - | - |
| 1777712172 | 18.33° C | 54% | 1021.6 hPa | - | - | - | - |
| 1777711176 | 17.78° C | 54% | 1021.7 hPa | - | - | - | - |
| 1777710100 | 16.11° C | 55% | 1021.7 hPa | - | - | - | - |
| 1777709245 | 16.11° C | 55% | 1021.9 hPa | - | - | - | - |
| 1777708329 | 16.11° C | 54% | 1022 hPa | - | - | - | - |
| 1777707654 | 15.56° C | 54% | 1022 hPa | - | - | - | - |
| 1777706763 | 15° C | 54% | 1022.2 hPa | - | - | - | - |
| 1777706092 | 14.44° C | 54% | 1022.2 hPa | - | - | - | - |
| 1777704942 | 15° C | 54% | 1022.4 hPa | - | - | - | - |
| 1777704509 | 15° C | 55% | 1022.4 hPa | - | - | - | - |
| 1777698792 | 11.11° C | 66% | 1022.6 hPa | - | - | - | - |
* Rain since midnight (hover to see other rain measurements)
** Current wind speed in m/s (hover to see current wind gust speed)